RH
100 99 99 100 100 99 96 91 85 78 73 69 64 61 54 48 44 41 37 36 32 27 24 22 19 17 15 14 14 14 15 16 16 16 16 16 16 15 15 14 13 13 13 13 13 12 13 13 13 13 13 13 13 13 13 14 15 15 17 18 20 21 21 21 23 31 39 44 49 61 78 93 99 100 100 100 100 100 100 100 100 99 100 100 97
100 100 100 100 100 100 100 100 99 97 96 94 89 86 80 74 69 65 63 61 55 48 44 38 31 27 24 22 21 19 18 16 15 14 13 12 12 11 12 11 11 11 11 11 12 12 12 12 13 13 13 14 14 15 16 17 18 21 24 25 28 28 26 30 41 53 60 66 76 89 98 101 100 99 100 100 100 100 100 99 99 100 102 102 99
98 98 97 96 97 98 99 99 99 99 99 97 95 93 92 91 89 87 86 84 80 76 72 64 56 50 44 42 39 35 34 32 31 30 29 28 26 24 22 20 19 19 18 18 18 17 17 18 19 18 19 21 23 25 26 26 30 35 36 34 36 39 45 57 71 79 84 90 97 100 100 99 99 100 100 101 100 99 98 99 100 102 103 103 101
92 90 89 89 88 89 90 92 94 94 93 92 91 90 89 90 90 89 89 88 89 91 90 86 82 77 73 69 62 55 51 48 46 46 49 51 52 52 51 48 46 44 44 44 43 42 41 41 39 38 39 44 47 48 49 51 54 55 53 52 59 69 79 89 94 96 98 100 100 100 100 99 99 100 100 101 99 97 97 99 102 102 102 103 102
81 79 78 77 76 76 77 79 82 84 86 86 86 85 86 88 88 90 91 91 94 97 98 97 94 92 93 91 87 82 78 73 68 64 64 66 66 66 67 67 67 66 67 68 69 70 71 71 70 69 70 73 75 76 78 79 78 77 78 83 90 95 99 100 100 100 100 100 100 100 100 99 99 101 101 100 98 96 98 101 102 102 101 102 102
75 71 69 67 67 68 69 71 73 75 76 76 75 76 76 77 80 85 89 93 96 98 100 101 100 99 100 99 98 98 97 95 93 91 91 91 89 88 88 88 88 88 89 90 91 92 92 93 94 94 93 93 94 96 97 95 94 95 96 99 100 100 100 100 100 100 100 99 100 100 99 99 100 101 100 99 96 97 100 101 100 101 101 102 102
76 72 68 66 66 67 68 70 71 71 73 74 75 76 76 76 78 80 83 87 89 90 90 94 97 99 100 100 101 101 100 100 100 100 100 98 97 96 97 98 98 99 99 99 100 100 100 100 101 101 100 100 101 101 101 100 100 101 100 100 100 100 100 100 100 100 100 100 100 99 99 100 100 100 99 96 96 99 101 101 100 101 101 101 102
74 73 72 72 73 73 72 71 70 72 74 76 77 77 77 78 79 80 82 83 84 84 85 87 91 95 98 100 100 100 100 101 101 101 99 97 96 96 96 96 95 95 97 97 97 97 97 96 96 97 98 100 101 101 100 101 102 102 101 101 101 100 99 100 100 100 100 100 99 99 99 100 100 99 98 96 98 100 101 100 101 101 101 101 101
72 70 70 70 71 73 74 74 73 72 71 71 70 69 68 68 68 69 71 72 74 75 78 81 86 93 96 95 95 96 99 101 100 100 100 99 99 99 99 99 97 97 98 99 99 97 97 96 96 97 98 99 101 100 100 101 101 101 101 100 101 100 100 100 100 99 100 100 99 100 100 100 100 100 100 99 99 100 100 100 101 102 101 101 100
79 75 71 69 68 68 70 72 72 70 69 67 66 65 65 66 67 67 66 66 67 67 70 75 81 85 86 85 86 88 92 96 96 95 98 101 101 100 100 100 100 100 100 100 100 100 100 100 99 100 100 100 100 100 100 100 100 100 100 100 100 100 100 100 100 100 100 99 100 100 99 99 100 101 101 100 100 100 100 100 101 101 101 100 99
82 78 74 72 69 68 68 68 68 67 66 64 63 62 63 65 67 69 70 71 72 72 74 77 79 79 80 81 82 83 86 91 92 93 98 101 100 100 99 99 100 100 100 101 101 100 100 100 100 100 100 100 100 100 100 100 100 100 100 100 100 100 100 100 100 100 100 100 100 100 99 100 100 100 101 100 100 101 100 101 102 101 101 101 100
80 79 78 76 73 70 69 68 66 65 63 61 59 57 57 58 60 62 66 70 73 76 78 79 79 79 80 82 84 88 93 97 97 99 101 99 97 95 94 93 95 96 98 100 100 101 101 101 100 100 100 100 100 100 100 100 100 100 100 100 100 100 100 100 100 100 100 100 100 100 100 100 100 101 102 100 100 101 101 103 103 101 100 101 101
69 71 73 73 73 72 70 68 65 63 61 58 56 54 51 50 50 52 54 58 62 67 70 72 75 78 80 83 87 93 98 100 98 96 96 93 91 89 88 89 91 93 96 96 96 97 99 100 100 100 101 101 100 100 100 100 100 100 100 100 100 100 100 99 100 100 100 101 100 100 100 100 100 101 102 100 100 100 102 103 103 101 101 101 101
51 52 54 56 60 62 62 62 61 58 56 53 50 48 45 43 42 42 42 43 45 49 52 56 60 64 68 74 80 85 89 89 86 84 84 83 81 81 82 86 89 91 92 91 89 90 90 91 94 96 99 101 101 100 100 100 100 100 100 100 100 100 100 100 100 100 100 101 100 99 101 101 101 101 100 99 99 100 102 103 102 102 101 101 100
40 40 41 41 43 46 48 50 51 51 50 47 43 39 35 33 32 30 30 30 30 32 34 37 40 43 46 51 56 61 64 65 65 65 66 66 66 67 68 70 73 75 76 77 78 78 78 80 81 83 86 89 92 96 99 100 101 100 100 100 100 100 100 100 100 101 101 100 100 100 102 101 101 101 99 97 97 100 103 103 102 103 101 101 102
31 31 31 31 32 32 33 35 35 35 34 33 30 28 26 25 24 24 25 25 25 26 27 28 29 30 32 34 35 38 41 41 43 43 44 45 46 47 48 49 51 53 55 57 58 60 62 64 66 67 68 70 73 77 83 91 98 101 101 100 100 101 101 100 101 101 100 100 101 101 101 101 101 100 97 95 97 101 103 103 103 103 101 102 103
30 29 28 26 26 25 24 25 24 24 24 24 24 24 24 24 24 24 25 25 26 26 26 27 28 28 29 30 30 31 33 33 32 32 33 33 32 32 33 36 39 41 43 44 44 46 47 48 50 51 52 54 56 58 63 70 81 92 100 102 101 101 100 100 102 101 99 99 101 101 100 101 101 99 96 95 97 101 103 104 103 102 102 102 98
33 34 33 33 32 30 28 26 25 25 24 23 23 23 23 24 24 24 25 25 25 25 25 25 27 27 28 28 29 30 31 31 30 30 30 30 28 29 29 31 35 39 39 38 38 39 41 42 43 43 44 46 46 48 50 53 58 68 80 91 99 101 101 101 101 100 100 100 100 101 101 101 99 98 97 97 99 101 103 103 101 102 103 96 83
18 20 22 25 28 30 31 32 31 31 31 30 29 29 28 28 28 27 27 27 28 28 28 29 29 30 31 31 31 32 33 32 31 30 30 29 28 28 27 29 34 37 36 35 34 34 37 39 40 41 42 43 43 44 46 47 48 50 55 65 78 90 98 102 101 101 101 101 101 101 100 100 99 99 100 100 102 103 102 102 102 101 96 80 60
8 9 9 10 13 15 19 22 25 29 32 33 34 34 34 34 33 33 33 32 33 34 34 36 37 38 38 37 36 35 35 34 33 32 31 30 29 28 28 29 32 32 31 31 31 33 36 36 38 40 41 41 41 41 41 41 41 41 44 50 59 69 79 88 96 101 102 101 101 100 100 101 99 99 101 102 102 102 101 102 99 90 74 54 35
8 8 8 8 8 8 9 10 12 15 18 22 26 31 33 33 33 34 35 36 37 38 39 40 41 41 41 40 38 38 37 36 36 35 35 34 33 33 33 33 34 32 29 28 29 32 35 35 35 36 35 34 34 34 37 40 40 40 44 50 53 55 60 70 87 101 102 99 101 100 100 101 100 100 102 102 101 101 100 97 86 66 46 31 23
9 8 8 8 9 9 9 8 8 9 10 11 14 18 23 27 28 29 30 32 34 35 37 38 38 39 40 40 39 40 40 40 41 40 39 38 37 37 37 37 37 35 33 32 32 32 34 34 32 31 29 30 34 38 44 47 46 45 52 60 60 57 57 67 87 101 101 99 101 100 99 100 100 101 102 101 101 100 93 81 61 40 26 22 21
9 8 8 9 10 12 13 12 11 11 10 11 12 13 16 20 24 27 28 28 29 31 33 34 34 35 37 37 38 40 42 44 45 44 42 40 38 38 38 38 39 39 37 38 37 35 36 36 33 31 30 33 41 48 52 53 50 48 60 79 85 79 78 86 96 101 100 100 100 100 100 101 100 100 101 100 98 91 74 54 36 24 21 22 20
9 8 9 12 16 19 21 21 19 18 17 17 17 17 16 17 21 26 28 27 28 30 31 32 33 35 37 38 40 42 44 45 45 44 42 41 39 38 37 37 39 42 43 44 42 39 39 38 35 34 34 37 47 55 57 59 58 53 64 89 102 98 96 99 100 100 100 100 100 101 102 101 100 101 101 95 85 69 48 32 23 21 22 20 18
9 10 13 19 26 30 33 32 29 28 26 26 25 24 22 21 22 26 27 28 28 29 30 32 32 33 35 37 39 41 43 44 44 44 42 42 41 40 40 41 43 46 50 51 49 45 41 39 38 38 39 42 50 56 57 58 59 56 64 85 98 99 100 100 99 100 100 100 100 101 101 101 101 100 93 80 62 44 28 22 22 21 20 18 16
9 12 19 28 34 37 38 38 36 35 32 31 30 28 26 25 25 26 26 26 27 29 31 33 35 37 39 39 39 40 41 42 44 44 42 42 44 47 50 52 53 57 61 62 58 51 45 43 42 42 44 48 53 56 56 55 55 57 66 80 88 93 100 101 99 100 101 100 100 101 101 101 98 89 75 57 40 27 22 22 22 20 18 17 16
9 12 22 36 43 43 40 39 39 40 40 39 38 36 34 32 32 33 35 38 43 49 54 59 65 69 69 68 68 68 68 68 69 68 65 65 66 68 70 71 71 72 75 74 66 57 50 47 47 47 50 54 57 58 57 54 57 68 82 91 93 96 100 100 99 100 100 99 101 102 100 95 84 69 53 36 26 22 22 22 20 18 18 17 15
11 11 21 38 52 56 54 53 54 59 64 64 62 60 58 57 58 60 64 69 75 81 85 89 91 91 88 88 89 91 94 97 98 97 94 93 94 93 92 92 90 89 91 87 74 61 55 52 51 52 54 57 60 62 59 59 70 85 96 100 100 100 100 100 100 100 99 100 102 99 91 80 64 48 33 25 22 24 22 20 19 18 17 16 14
14 11 18 39 62 73 75 74 72 73 73 71 70 70 71 76 83 87 90 91 92 94 95 94 92 88 85 81 77 76 81 88 94 100 101 100 101 100 99 101 100 99 101 96 79 64 59 57 54 54 56 59 63 64 61 67 83 97 100 99 100 100 100 100 99 100 101 101 97 87 74 60 44 30 24 23 24 23 21 20 19 18 16 15 14
18 12 16 39 69 84 85 81 74 68 67 69 72 74 73 75 78 79 80 78 75 73 72 71 71 69 66 65 62 60 62 65 72 87 99 101 99 99 100 101 101 100 102 99 81 66 61 59 56 56 59 61 63 66 72 83 95 101 100 99 100 100 100 100 100 100 100 94 83 70 55 40 29 24 24 24 23 22 21 20 19 17 16 14 13
23 15 15 36 66 81 80 73 69 69 71 72 71 67 62 58 55 51 50 48 46 46 48 51 55 57 56 59 59 57 59 58 56 70 93 103 101 99 100 100 99 101 102 94 76 64 61 60 58 58 60 64 70 80 90 98 101 100 99 100 100 99 100 101 100 97 90 79 65 51 37 27 24 24 25 24 22 22 22 20 18 17 15 14 14
28 18 15 33 61 74 72 69 71 77 77 67 56 49 46 43 38 34 34 36 38 43 48 52 56 58 58 60 61 62 66 61 51 61 88 104 102 99 99 99 101 103 98 82 67 62 62 60 59 62 68 78 89 97 100 100 99 100 100 100 99 100 101 99 95 87 75 61 47 34 26 24 25 25 24 24 23 23 21 20 18 16 15 15 15
33 21 14 30 59 75 74 71 77 84 77 59 46 43 41 36 33 33 39 47 54 57 60 65 70 75 74 70 66 66 63 55 53 71 95 103 99 97 98 100 102 97 85 72 65 63 61 60 66 78 90 97 100 100 99 99 100 100 100 99 100 101 98 91 83 71 58 44 32 25 25 26 26 25 25 25 24 23 21 20 18 16 15 16 16
37 26 15 27 59 81 80 76 84 91 79 55 45 48 47 41 39 44 54 66 71 69 70 76 82 89 93 87 75 66 62 63 75 93 101 98 96 97 99 100 96 85 75 70 65 60 59 69 84 96 101 100 99 99 100 100 100 99 100 101 99 94 86 78 68 55 42 31 25 25 26 26 26 26 26 26 24 23 22 20 18 17 17 17 17
40 31 17 24 57 85 88 83 90 94 79 56 49 55 56 52 53 59 70 81 82 75 76 84 89 94 100 99 90 83 84 89 95 98 97 95 97 100 98 94 87 79 73 67 59 58 70 86 94 94 93 95 98 100 100 99 100 101 100 94 86 78 72 64 53 40 29 24 25 27 27 26 27 27 27 27 26 24 22 20 18 17 17 18 18
40 36 20 20 52 85 91 88 95 98 81 59 50 52 55 60 68 75 82 91 91 82 80 88 96 99 100 100 99 99 99 100 98 97 98 101 102 98 92 86 80 72 64 57 60 74 90 95 89 85 89 95 98 99 99 101 100 96 87 77 70 66 60 50 38 28 24 25 27 27 27 27 28 29 28 28 27 24 22 21 19 18 18 19 18
40 39 24 18 45 84 93 88 95 102 88 64 51 46 48 59 74 83 89 94 95 93 91 93 99 103 102 101 101 102 101 101 100 101 103 103 97 89 82 76 68 60 57 65 80 94 96 90 87 90 95 98 99 100 101 97 88 78 69 65 62 57 48 37 28 24 25 27 28 28 29 30 30 30 31 29 26 25 23 21 20 19 19 19 19
43 43 30 16 36 79 98 89 90 102 96 74 57 47 45 54 68 82 91 95 94 96 100 101 100 102 103 103 102 102 102 102 100 100 99 93 85 78 72 65 59 61 73 88 98 97 92 91 95 98 98 99 101 99 91 80 70 64 62 61 56 48 38 30 25 25 27 28 28 29 30 31 32 32 32 30 27 26 24 21 21 21 20 20 21
46 47 37 18 25 67 99 95 87 97 101 89 71 58 49 49 58 70 83 91 91 90 95 99 99 100 101 103 103 102 100 98 95 92 87 80 73 67 61 58 65 81 95 99 97 94 95 97 98 99 101 100 95 84 71 63 60 60 58 55 49 41 32 26 25 27 28 28 30 31 32 33 35 34 33 31 28 26 24 23 22 22 21 21 22
48 49 43 26 18 46 86 99 91 92 101 101 89 74 60 52 52 58 67 76 80 80 82 86 88 91 94 97 97 95 92 88 84 79 72 65 59 55 55 65 83 97 99 95 94 96 98 99 100 101 98 88 74 62 57 57 57 56 55 51 44 35 28 25 26 29 30 30 32 33 34 35 36 35 34 32 29 27 26 24 23 23 22 21 22
49 52 48 36 20 27 63 92 94 90 96 103 100 91 79 65 55 54 57 62 65 67 69 70 71 72 73 74 74 72 70 68 65 61 58 54 53 59 71 87 97 97 93 91 95 98 100 103 101 93 79 65 56 54 55 55 55 54 52 47 38 30 26 26 28 29 31 32 34 35 36 37 38 37 36 34 31 28 27 25 24 24 23 22 23
45 52 52 44 28 20 41 75 93 93 94 99 102 100 95 85 73 63 57 58 60 61 61 60 58 57 59 62 64 63 62 63 66 69 70 72 75 83 95 101 96 90 90 93 98 101 102 98 85 69 57 52 51 52 53 53 54 54 49 41 33 27 26 27 29 30 32 34 35 36 38 39 39 39 38 35 33 30 27 25 26 25 23 23 24
35 47 52 50 38 23 25 51 82 96 96 96 100 101 100 99 95 85 74 67 61 59 60 59 57 62 73 83 85 83 82 83 85 85 87 90 94 98 100 97 90 87 92 97 101 99 90 75 60 51 49 50 50 52 55 56 56 53 45 36 29 27 26 27 29 31 33 35 36 38 40 40 40 41 40 38 35 32 28 26 27 26 25 25 24
25 36 46 52 48 35 22 29 56 85 98 99 99 99 99 101 101 99 96 86 70 59 57 55 56 71 91 98 95 92 92 90 88 87 90 95 98 98 94 88 85 88 93 96 91 80 64 53 48 48 50 53 55 57 58 58 55 49 41 33 28 25 26 27 30 31 33 36 38 39 40 41 41 43 43 41 38 34 30 28 27 27 26 26 24
19 24 34 44 50 47 34 23 30 56 84 99 100 96 97 100 100 99 102 97 80 62 52 48 54 77 99 101 95 93 94 92 91 94 97 98 95 89 83 79 81 87 88 80 67 55 48 48 51 53 55 58 60 60 59 58 53 46 38 31 26 25 25 27 30 32 33 36 38 40 41 42 43 44 45 44 41 37 31 28 28 29 28 26 25
20 19 22 31 41 49 47 35 23 28 53 81 96 97 95 98 100 99 100 101 93 74 55 49 63 87 100 97 90 91 94 96 97 98 98 97 91 83 78 79 82 81 72 59 50 48 50 53 56 58 60 61 62 61 60 58 51 44 36 30 26 25 26 27 29 32 33 36 38 40 41 42 44 46 47 46 44 40 33 28 28 30 30 27 26
21 20 18 20 27 37 47 48 37 25 26 48 76 94 97 95 97 97 95 98 101 91 73 66 79 96 98 90 85 87 93 98 100 100 99 96 89 82 82 82 76 65 54 48 49 53 56 58 60 63 64 64 63 62 61 57 51 43 36 30 25 25 26 28 29 31 33 35 38 39 41 42 44 47 49 49 47 43 36 29 28 30 31 29 27
18 19 19 18 19 23 32 43 47 40 28 25 44 74 94 97 95 93 91 93 98 99 93 89 93 100 98 89 83 86 93 97 101 103 100 93 87 86 83 73 59 49 48 51 54 57 59 62 65 66 66 66 65 63 61 58 51 42 34 28 25 24 25 27 29 30 32 35 37 39 40 42 45 47 50 51 51 47 39 31 28 30 32 30 28
13 15 17 18 18 18 21 28 38 45 42 29 25 43 73 93 96 92 90 90 91 95 100 101 100 101 100 93 85 86 93 98 102 103 99 92 89 84 71 54 46 48 53 55 57 60 63 66 67 69 69 68 66 65 63 58 50 41 33 27 25 24 25 26 28 30 31 33 35 38 40 41 43 47 50 53 54 51 43 33 28 30 32 32 29
11 11 12 14 17 18 18 19 25 35 44 43 30 25 42 72 92 96 93 92 91 91 96 101 101 102 101 96 89 89 95 100 102 101 98 94 86 70 53 45 49 54 55 56 59 64 67 70 71 72 73 71 68 66 64 58 49 40 33 27 24 24 25 26 27 29 30 32 34 36 38 40 42 45 50 53 56 55 48 36 29 29 32 33 31
10 11 10 11 12 14 16 18 19 23 32 44 44 31 26 44 73 93 97 96 95 94 94 97 100 102 100 95 91 93 97 101 101 101 101 96 79 57 45 48 54 54 55 60 65 68 71 74 76 76 76 74 71 68 65 58 49 40 33 28 25 23 24 25 26 27 29 30 33 35 37 39 41 43 48 54 57 58 53 41 30 28 31 34 32
Wind_Speed
29 31 32 34 36 39 42 45 47 49 51 51 52 52 52 52 52 52 52 52 52 52 52 53 53 53 53 54 54 55 55 56 57 57 57 57 57 58 58 58 58 58 59 59 59 60 60 60 61 62 63 64 65 66 67 68 69 69 69 69 69 68 68 67 67 66 67 67 67 68 68 66 64 62 60 60 62 64 67 69 69 69 69 70 70
24 25 26 27 29 31 33 35 38 41 44 47 49 51 52 53 53 54 54 54 54 54 54 54 55 55 55 56 56 56 57 57 58 58 58 58 59 59 59 60 59 59 60 60 61 62 62 63 63 64 65 65 66 67 67 68 69 69 69 68 68 67 67 67 67 68 68 68 69 69 67 64 62 60 60 62 63 65 68 69 69 69 70 70 71
24 24 25 25 26 27 29 30 32 34 36 39 42 45 47 48 50 52 53 54 55 55 56 56 56 56 56 57 57 58 59 59 59 59 60 60 60 60 61 61 61 61 61 62 62 63 63 64 64 65 65 66 66 67 67 68 68 68 67 67 67 67 67 68 69 69 70 69 68 66 64 62 60 60 61 63 65 67 69 69 69 70 70 71 71
26 27 27 28 29 29 30 31 32 34 35 36 38 39 41 43 44 46 47 48 48 50 51 53 54 56 57 58 58 59 60 60 60 60 60 61 61 61 61 62 62 62 62 62 63 63 64 64 64 65 66 66 66 66 67 66 66 66 66 66 66 67 68 69 70 69 69 67 65 63 61 60 59 60 62 66 68 69 69 70 70 70 71 71 72
26 26 27 28 29 30 30 31 32 33 34 35 36 38 39 40 40 41 42 43 43 43 44 45 47 49 51 53 56 57 59 60 61 61 62 62 62 63 63 63 63 64 64 64 64 64 65 65 65 66 67 67 66 65 64 64 64 65 66 66 67 68 69 69 67 66 65 63 61 61 60 59 60 62 66 69 70 70 70 70 70 71 71 71 71
24 24 25 26 27 28 29 29 30 31 32 33 35 36 37 38 39 39 40 41 42 42 41 41 42 42 44 45 47 49 52 54 56 58 59 60 61 62 63 63 63 64 64 65 65 65 65 65 66 66 66 64 63 62 62 63 64 65 66 67 67 67 66 65 63 62 61 61 61 60 60 61 64 66 69 71 71 70 69 69 70 70 70 70 69
22 23 24 24 25 25 26 27 28 29 30 31 32 33 35 36 37 38 39 41 42 42 43 42 42 43 43 43 44 44 45 46 48 50 51 53 54 56 56 57 57 57 58 58 59 59 59 59 59 60 59 59 59 60 61 62 63 64 64 64 64 63 62 61 60 59 59 60 60 60 61 64 67 69 70 70 69 68 68 68 68 69 69 68 67
23 23 23 24 24 25 25 26 27 28 28 29 29 30 32 33 34 36 37 38 40 41 42 42 43 44 44 45 46 46 46 46 47 47 48 48 49 49 50 51 51 52 52 53 54 54 54 55 55 56 56 56 57 59 59 60 61 61 62 62 61 61 60 59 59 58 58 58 58 58 61 64 67 68 67 67 67 67 67 67 67 67 67 65 64
23 24 25 26 26 26 27 27 27 27 28 28 29 30 31 32 33 34 35 36 37 38 39 39 41 42 44 45 46 47 47 48 49 49 48 49 48 49 49 50 50 51 51 52 53 53 54 55 55 55 55 56 56 57 57 58 58 58 59 59 58 58 57 57 56 56 56 55 55 57 60 63 65 66 66 66 66 66 66 66 66 65 64 62 62
25 26 26 27 28 29 29 29 29 29 30 30 31 31 32 33 34 34 35 35 36 37 37 38 39 40 42 43 44 45 47 48 49 49 49 49 50 50 51 51 51 51 51 51 52 52 53 53 54 54 54 54 55 55 55 55 56 57 57 57 57 56 56 55 55 55 55 55 56 58 61 63 64 64 64 64 65 65 66 66 65 64 62 59 58
26 27 28 29 30 31 31 32 32 32 32 32 33 33 34 34 35 35 36 36 37 38 38 39 39 40 41 41 42 43 45 46 46 46 46 47 47 48 49 50 51 51 51 51 51 52 52 52 53 53 53 53 52 52 51 51 52 53 53 54 54 55 54 55 55 55 55 56 57 59 61 62 63 63 63 63 64 65 65 65 63 61 58 56 54
27 28 29 30 32 32 33 34 34 35 35 35 35 36 36 36 37 37 37 38 38 39 40 40 41 41 42 42 43 43 44 45 45 45 46 46 47 48 49 49 51 51 52 52 53 53 53 52 52 52 53 53 52 52 51 50 49 49 50 50 51 52 52 53 54 55 56 57 58 60 61 61 62 62 62 63 64 65 64 62 60 56 54 52 52
30 31 32 32 33 34 35 35 36 36 37 37 38 38 38 39 39 39 39 40 40 41 41 42 42 43 44 44 45 45 46 47 47 47 48 48 49 49 50 50 51 52 52 52 53 52 52 53 53 53 53 53 53 53 53 52 52 51 50 50 51 52 52 53 54 55 57 57 58 59 59 60 61 61 62 63 64 63 61 59 55 52 50 50 52
31 33 34 35 36 37 37 38 38 38 38 39 39 40 40 41 41 41 41 42 42 42 43 43 43 44 44 45 46 47 48 49 49 49 49 50 49 49 49 50 51 51 52 52 52 52 52 52 53 53 54 54 53 53 53 52 51 50 49 49 50 51 52 52 54 55 56 57 58 58 59 59 60 61 62 63 63 61 58 54 50 48 48 51 54
32 33 34 35 36 37 38 39 39 40 40 41 41 41 42 42 42 42 43 43 44 44 44 44 44 44 44 45 46 47 48 49 49 49 49 49 49 48 49 50 51 51 51 52 52 52 52 53 53 53 54 54 54 53 53 52 51 50 49 50 51 52 53 54 55 55 56 57 57 57 58 59 60 61 62 61 60 57 52 48 46 47 49 52 54
32 33 34 35 36 37 37 38 39 40 41 41 42 42 42 42 43 43 43 43 44 44 44 44 44 44 44 44 45 46 47 48 48 48 49 49 49 48 48 50 51 51 51 52 52 53 53 53 54 54 54 54 54 54 53 53 52 51 50 52 53 53 53 54 54 54 54 54 55 56 58 59 60 61 61 59 56 51 46 44 46 48 50 52 54
30 31 32 33 34 35 36 37 37 38 39 40 40 40 41 41 41 41 41 42 42 42 42 42 42 42 42 42 42 43 45 46 46 46 47 48 48 47 47 49 51 52 52 52 52 52 53 54 54 54 55 54 54 54 54 54 54 53 52 53 53 52 52 53 53 52 51 52 55 57 59 60 60 60 59 56 50 45 43 45 48 50 51 52 53
29 30 31 33 33 34 35 35 36 36 37 38 38 39 39 39 40 40 40 40 41 41 41 41 41 41 41 41 41 42 43 44 44 44 45 45 45 45 45 46 49 51 52 52 52 52 53 53 53 54 54 54 54 54 54 54 55 55 55 56 55 55 55 55 54 53 52 53 56 58 59 59 59 58 55 50 44 42 43 47 49 50 51 52 52
31 32 33 34 35 36 36 37 37 37 38 38 39 39 39 40 40 40 41 41 41 42 42 42 42 42 42 41 42 42 43 43 44 44 44 44 44 44 43 44 46 48 49 49 50 51 51 52 53 53 54 54 54 54 54 55 55 56 57 57 58 58 59 58 56 54 53 54 55 57 58 58 57 53 48 43 41 42 45 48 49 50 50 51 51
32 33 34 35 36 37 38 38 39 39 39 40 40 40 40 40 41 41 41 42 42 42 42 42 42 42 42 42 42 43 43 44 44 44 45 45 45 45 44 45 46 47 47 47 47 48 49 50 50 51 52 53 53 53 54 54 55 55 56 56 56 57 58 57 56 55 54 53 55 57 58 55 52 47 42 40 41 44 46 48 48 49 49 50 51
34 35 36 37 38 39 39 40 40 40 41 41 41 41 41 41 41 41 42 42 42 43 43 43 43 43 43 44 44 44 44 44 44 44 45 45 45 45 45 46 47 48 48 47 46 46 46 47 48 49 50 50 50 50 51 51 53 53 53 54 55 55 55 54 54 53 53 54 55 56 54 50 45 41 39 40 43 45 46 47 47 48 49 50 51
37 37 38 38 39 40 40 41 41 41 42 42 42 42 43 43 42 42 42 43 43 44 44 44 45 45 45 46 46 46 45 45 46 46 46 45 45 45 45 46 48 48 48 48 47 46 46 46 46 47 47 46 46 46 46 47 49 50 50 50 51 52 51 51 52 53 54 54 54 52 47 43 40 38 39 42 43 44 45 45 46 47 48 50 52
39 40 40 40 40 40 40 41 42 42 42 43 43 43 44 44 44 43 43 44 44 44 45 45 46 46 47 47 47 47 48 48 48 48 47 46 45 45 45 46 47 48 48 48 47 46 46 45 45 45 45 43 43 43 44 46 48 48 47 45 46 48 49 50 51 53 53 52 49 45 41 38 37 38 40 42 43 43 44 44 45 46 48 51 54
41 42 42 41 40 40 40 40 41 41 42 42 43 43 43 44 44 44 45 45 45 45 46 46 47 47 48 48 49 49 50 50 49 49 48 47 46 45 45 46 46 47 47 47 47 47 46 45 45 44 43 42 42 43 45 46 48 48 45 43 44 46 48 49 50 50 49 46 43 39 36 36 36 38 39 41 41 42 42 43 44 47 49 52 54
42 43 43 42 40 39 39 40 40 41 41 41 41 42 42 43 43 44 45 45 46 46 47 48 48 49 49 50 50 51 51 51 51 50 49 48 47 46 45 45 45 45 46 46 46 46 46 45 44 43 43 42 42 44 46 47 48 48 46 45 46 47 47 46 45 44 43 40 37 35 34 35 36 37 38 39 40 40 41 42 45 48 50 52 55
42 43 43 42 40 39 39 39 40 41 41 41 41 41 41 41 42 43 44 46 47 48 48 49 50 50 51 51 52 52 53 53 53 52 51 50 48 47 45 44 43 44 45 45 45 45 45 44 43 42 42 42 43 45 47 48 49 48 47 46 47 48 45 41 39 38 37 34 32 32 33 33 34 36 37 38 38 39 40 42 45 48 51 53 55
42 43 42 42 41 40 39 39 40 40 41 41 41 41 42 42 43 44 45 46 47 48 49 50 51 52 52 52 53 53 53 53 53 53 52 51 49 47 45 44 43 43 43 43 44 44 44 42 42 42 42 43 44 45 47 49 48 47 44 44 45 44 40 36 35 33 31 30 30 30 31 32 34 35 35 36 37 38 40 43 45 48 51 53 55
42 43 43 41 40 40 40 40 40 40 40 40 40 40 41 42 43 44 45 46 48 49 50 50 51 51 51 51 50 50 49 49 50 50 50 48 46 45 44 43 42 41 42 42 42 42 42 41 41 41 42 43 44 45 47 47 45 44 42 41 40 37 34 32 31 29 28 27 28 29 30 31 32 33 33 35 37 39 41 43 46 49 51 53 53
41 43 43 42 40 38 38 38 39 39 39 39 39 39 40 40 41 42 43 44 45 46 47 48 49 49 48 47 46 45 44 43 42 43 43 42 40 39 39 39 39 39 40 40 40 40 40 39 40 41 42 43 44 45 45 45 43 42 40 37 34 32 30 28 27 26 26 26 27 28 29 30 31 31 33 35 37 39 41 44 47 49 51 51 51
41 43 44 42 40 38 37 38 38 38 38 37 37 37 36 37 37 38 40 41 42 43 44 45 46 46 46 46 45 44 41 39 37 37 36 35 34 34 35 36 36 37 38 38 37 37 37 38 39 40 41 42 44 45 45 43 41 39 35 33 30 28 26 25 24 24 25 26 26 27 28 29 30 31 33 35 37 40 43 46 48 49 49 49 49
40 43 44 43 40 38 38 38 38 36 34 33 33 33 33 34 34 35 37 38 38 39 39 40 41 42 43 43 42 41 39 36 33 32 32 30 29 30 32 33 33 34 34 34 34 34 35 36 38 39 41 44 45 45 42 39 35 32 29 28 26 24 23 23 23 23 24 24 25 26 27 28 30 31 33 36 38 41 44 46 48 48 48 47 47
40 42 44 43 41 39 39 39 36 32 30 30 30 31 32 33 33 33 33 34 35 36 37 38 38 38 38 37 36 35 33 31 29 28 27 27 27 28 29 30 30 31 30 30 31 31 32 34 37 40 43 44 42 38 34 30 27 24 23 22 22 21 22 22 22 22 22 23 24 25 26 28 30 31 34 37 39 42 44 46 47 47 46 46 45
40 42 43 43 41 39 40 40 35 30 29 29 30 30 30 31 31 31 32 33 33 34 35 35 34 33 32 30 29 27 25 23 22 22 23 25 25 26 26 26 26 26 26 27 28 29 30 34 37 39 39 36 31 27 24 22 20 19 19 19 20 20 20 20 20 21 22 22 23 24 26 28 30 32 35 38 40 42 44 45 46 45 44 44 44
40 42 43 44 42 40 41 40 35 29 28 29 29 30 31 30 30 31 31 32 33 34 34 32 29 26 23 21 19 17 16 16 16 18 20 22 23 22 22 22 22 23 23 24 25 27 30 32 33 32 29 25 21 18 17 16 16 17 18 19 19 19 19 19 20 20 21 22 23 24 26 28 30 33 36 38 40 42 44 44 44 44 43 43 44
39 41 43 44 42 39 41 40 34 28 27 28 28 30 31 31 30 30 30 31 33 34 32 29 25 21 17 14 11 9 10 12 14 16 18 19 18 18 18 18 18 19 20 21 24 27 28 27 25 22 19 16 14 13 14 15 16 17 18 18 18 18 18 19 19 20 20 22 23 25 27 29 31 34 36 38 40 42 43 44 43 42 42 42 43
38 39 42 44 42 39 40 40 34 27 26 27 27 28 30 30 29 29 29 30 31 31 29 26 23 19 15 11 7 6 8 11 13 14 14 14 15 15 15 15 15 17 19 22 24 24 23 21 19 16 14 12 12 13 14 15 16 17 17 17 17 17 18 18 19 19 20 22 24 26 28 29 32 34 36 38 40 42 43 43 42 41 41 42 43
36 38 40 43 42 39 39 40 36 28 26 26 26 26 28 29 29 27 27 27 27 26 25 23 20 18 14 11 8 7 9 10 11 11 11 11 11 12 12 13 15 17 20 21 21 19 18 17 16 14 12 12 13 14 16 16 16 16 16 16 16 17 17 18 18 19 21 23 25 26 28 30 32 34 36 38 40 42 43 42 41 41 41 42 42
36 37 39 42 42 39 38 40 38 31 26 26 25 24 25 27 28 27 26 24 23 21 19 18 17 15 13 11 9 9 9 9 9 9 10 10 10 11 12 14 17 18 19 18 16 14 14 14 13 12 12 13 15 16 16 16 16 15 15 15 16 16 17 18 19 20 22 24 25 27 29 31 32 34 36 39 41 42 42 42 41 40 41 42 42
35 36 38 40 42 40 37 38 39 35 28 26 25 25 24 24 25 26 24 23 20 18 16 15 14 12 11 10 9 8 8 8 8 8 9 10 11 13 14 16 17 17 16 14 12 11 11 11 12 12 14 15 15 16 15 15 14 15 15 16 16 16 17 18 19 21 22 24 26 27 29 31 33 35 37 39 41 42 42 41 40 40 41 41 42
34 36 37 39 41 40 37 36 38 38 33 27 25 25 24 23 23 23 23 22 20 18 16 15 13 12 10 9 8 8 7 7 8 9 11 12 13 15 15 15 15 14 12 10 9 9 10 11 12 13 14 15 15 14 14 14 15 15 16 16 16 17 18 19 20 21 23 24 26 28 30 31 33 35 37 39 41 42 42 41 40 40 40 41 42
34 35 36 38 40 40 38 35 36 38 36 31 27 25 24 23 22 22 22 21 20 18 17 16 15 14 13 12 11 11 11 11 11 12 13 14 14 14 14 13 12 11 8 7 7 9 10 12 13 14 14 14 13 13 14 15 16 16 16 17 17 17 18 19 20 22 23 25 27 28 30 32 34 35 37 39 41 42 42 41 40 39 40 41 41
34 34 35 37 38 40 39 37 35 35 37 35 31 27 25 24 22 22 21 21 20 19 19 18 18 16 15 14 14 13 13 12 12 13 13 13 13 13 12 11 9 7 6 7 9 10 12 13 13 13 13 12 13 14 15 16 16 16 16 16 17 17 18 20 21 22 24 26 27 29 31 32 34 36 37 39 40 42 42 41 39 39 40 40 41
35 35 35 36 37 38 39 38 36 34 35 35 34 32 29 26 24 23 22 21 21 20 20 19 19 17 16 15 14 14 13 13 12 12 12 12 11 10 9 8 7 6 7 9 11 12 13 13 13 12 12 13 14 15 15 15 15 16 16 16 17 18 19 20 21 23 25 26 28 30 31 32 34 35 37 38 40 41 41 40 39 39 39 40 40
36 36 35 36 36 37 38 39 38 35 34 34 34 34 32 30 27 25 23 22 21 20 20 19 18 17 16 16 16 15 14 13 12 11 10 9 8 7 7 7 7 7 9 11 12 13 13 12 12 12 12 13 14 14 14 15 15 15 16 16 17 18 19 21 22 24 25 27 29 30 31 32 34 35 36 38 40 41 41 40 39 38 39 40 40
37 36 36 36 36 36 37 38 38 37 35 33 33 34 34 32 30 27 25 24 22 20 19 18 17 16 17 17 16 14 12 10 9 8 7 6 7 7 8 8 9 10 11 12 12 12 11 11 11 12 12 13 14 14 14 15 15 16 16 17 18 19 20 21 23 24 26 27 29 30 31 32 33 35 36 38 39 41 41 40 38 38 39 40 40
38 37 37 37 37 36 36 37 38 38 38 35 33 33 33 33 32 29 27 25 24 21 18 16 16 16 17 17 16 13 11 9 8 7 6 7 8 9 10 10 11 11 12 12 11 10 10 10 11 12 13 13 14 14 15 15 16 16 17 17 18 19 20 22 23 25 26 28 29 30 31 32 33 34 36 37 39 40 41 40 38 38 39 39 40
39 38 37 37 37 37 37 37 37 38 39 38 36 34 33 33 32 31 28 26 24 22 19 17 15 16 17 17 15 13 11 10 8 7 7 9 10 11 12 12 11 11 10 10 10 10 10 11 11 12 13 14 15 15 16 16 16 17 17 18 19 20 21 22 24 25 26 28 29 30 31 32 33 34 35 37 38 40 41 40 38 38 38 39 39
39 39 39 38 38 37 37 37 37 37 38 38 38 35 33 32 32 32 30 27 24 22 20 18 16 17 18 18 15 13 11 10 8 8 9 11 12 12 12 11 10 10 9 9 9 10 10 11 12 13 14 15 15 16 16 17 17 17 18 18 19 20 21 23 24 25 27 28 29 30 31 32 33 34 35 36 38 39 40 40 39 38 38 39 39
40 40 39 39 39 39 38 38 37 37 37 37 38 37 35 32 31 31 30 28 25 23 21 19 18 18 19 17 14 12 11 10 9 10 11 12 12 12 11 10 9 9 9 9 10 10 11 13 13 14 15 15 16 16 17 17 17 18 18 19 20 21 22 23 24 26 27 28 29 30 31 32 33 34 35 36 37 39 40 40 39 38 38 38 39
41 41 40 40 40 40 39 39 38 38 37 37 37 37 37 34 31 30 30 28 25 23 22 21 19 19 18 16 13 11 10 10 10 11 12 13 13 12 10 8 8 8 9 10 10 12 13 14 14 15 15 16 16 16 17 17 18 18 19 19 20 21 22 23 25 26 27 28 29 30 31 32 33 34 35 36 37 39 40 40 39 38 38 38 39
42 42 42 41 41 41 40 39 39 39 38 37 36 36 37 36 34 31 29 28 25 22 21 21 19 17 16 14 12 10 10 11 12 13 13 13 13 11 9 8 7 8 9 10 12 13 14 14 15 15 16 16 16 17 17 18 18 19 19 20 21 22 23 24 25 26 27 28 29 30 31 32 33 34 35 36 37 38 40 40 40 38 38 38 39
Wind_Direction
249 250 252 254 254 254 255 256 258 259 260 261 262 262 263 263 264 264 264 264 264 264 265 265 265 265 266 266 266 266 267 267 268 268 269 269 269 269 269 269 269 269 270 271 272 272 273 273 274 275 275 276 277 278 279 280 281 282 282 284 285 286 286 287 287 288 289 290 290 291 292 293 293 294 293 291 290 290 290 291 292 292 293 294 295
249 249 250 251 252 253 255 256 257 259 260 261 262 263 264 264 265 265 266 266 266 266 266 266 266 267 267 268 268 268 268 268 268 269 269 269 269 270 270 270 270 270 270 271 271 272 273 273 274 275 275 276 277 278 279 279 280 281 283 284 285 285 285 286 287 288 289 290 290 292 293 293 294 294 293 291 290 290 291 292 292 292 293 294 294
260 261 262 262 262 262 261 261 261 262 263 264 265 265 266 267 267 267 268 268 268 268 267 267 267 268 268 268 268 268 268 268 269 269 269 269 269 269 270 270 270 270 270 271 271 272 272 273 274 274 275 276 277 277 278 279 280 281 282 283 284 284 285 286 287 288 289 290 291 292 293 293 294 294 293 291 290 290 291 292 292 293 293 293 294
266 267 268 268 269 269 269 268 267 266 267 267 267 267 267 267 268 268 269 270 270 269 269 268 268 268 268 268 268 268 268 269 269 269 270 270 270 270 270 270 270 271 271 271 271 272 272 273 274 274 275 275 276 277 278 279 280 281 281 282 283 284 285 286 287 288 289 290 291 292 292 293 294 294 292 291 290 291 292 292 292 293 293 293 294
270 271 272 272 273 273 272 272 270 269 269 268 268 268 267 268 268 268 269 269 270 270 270 269 269 268 268 268 267 267 267 267 268 268 268 269 269 270 270 270 270 271 271 271 271 271 272 272 273 273 274 275 276 277 278 279 279 280 281 282 283 285 286 287 288 289 289 290 290 291 292 293 294 293 291 290 290 291 292 292 292 292 293 293 294
274 275 278 279 279 278 276 275 273 271 270 270 270 270 269 269 269 268 268 268 268 269 270 270 270 269 268 268 267 267 267 267 267 267 267 268 268 269 270 270 270 271 271 271 271 271 271 271 272 273 274 276 277 278 279 279 280 281 282 283 284 285 285 286 287 287 287 288 289 290 292 293 293 291 289 289 290 291 291 292 292 292 293 293 293
279 280 282 282 282 281 279 278 277 275 274 272 271 271 271 271 271 271 270 270 269 270 270 270 270 269 268 267 267 266 267 267 267 266 267 267 268 268 268 269 269 270 270 271 271 272 272 272 273 273 274 276 277 278 279 279 280 281 282 282 283 283 283 284 284 285 286 287 289 290 291 292 291 289 288 288 289 290 291 292 292 292 293 293 293
281 282 284 283 282 281 280 280 280 279 278 277 276 275 274 274 274 273 273 273 273 272 272 272 271 271 270 269 269 269 268 268 268 268 269 269 270 270 270 270 270 271 271 271 272 272 273 273 273 274 275 275 276 277 277 278 279 279 280 280 281 282 282 283 283 284 285 286 288 289 289 289 287 286 287 288 289 290 291 291 292 292 293 293 293
277 279 281 281 281 281 281 281 281 280 280 280 280 280 279 278 277 276 275 275 275 275 275 274 273 272 271 271 271 271 270 270 269 269 269 269 270 271 271 272 273 273 273 273 274 274 275 275 276 276 276 277 277 277 278 278 278 279 280 280 281 281 282 282 282 283 283 285 286 286 285 285 285 286 287 288 289 290 291 291 291 292 292 293 293
272 274 275 277 278 279 279 280 280 280 280 280 280 280 279 278 277 276 275 275 275 275 274 273 272 271 271 272 272 271 271 271 270 270 270 270 270 270 270 270 271 272 272 272 273 274 274 275 275 276 276 276 276 277 277 277 278 278 278 279 280 281 281 281 282 282 283 283 283 283 283 284 285 287 288 289 290 291 291 291 291 292 292 292 292
270 271 272 273 274 275 276 277 278 279 279 280 280 280 279 278 277 276 276 274 274 273 272 272 271 270 270 270 271 271 271 271 271 271 271 271 272 272 273 273 274 274 274 275 275 275 276 276 276 275 275 275 275 276 276 277 278 278 278 279 280 280 280 281 282 283 282 282 282 283 284 286 288 289 290 291 291 291 291 291 292 292 292 292 291
273 273 274 274 274 275 276 277 278 278 279 280 280 280 280 279 278 277 276 275 274 273 272 271 271 271 271 271 271 271 270 270 269 269 269 270 271 273 275 276 276 276 277 277 277 278 278 278 277 277 276 275 275 274 274 275 276 277 278 280 280 280 280 281 282 282 281 282 283 285 286 288 289 290 291 291 291 291 292 292 293 293 292 291 290
277 278 278 278 278 278 278 279 279 279 280 280 280 280 280 279 279 278 278 277 276 274 273 273 272 271 271 271 271 271 271 270 270 270 270 271 272 274 275 275 276 276 277 277 278 278 279 278 278 278 277 276 276 276 275 274 275 276 278 279 280 281 281 282 281 281 282 283 285 286 287 288 289 290 291 292 292 293 293 293 293 292 291 290 291
283 282 282 282 281 280 280 280 280 280 280 279 279 278 278 278 278 278 278 277 276 275 275 274 273 273 272 272 272 272 271 271 271 271 272 272 273 273 274 275 275 275 276 276 276 277 277 277 278 278 278 278 279 278 277 276 276 278 278 279 280 281 281 281 281 282 283 285 286 287 288 289 290 291 292 293 294 294 293 292 291 290 290 291 292
287 286 285 284 283 282 281 280 279 279 279 279 279 278 278 278 277 277 276 276 276 275 275 275 274 274 274 273 273 273 273 273 273 273 273 273 273 273 274 274 274 274 274 274 275 275 275 275 276 277 277 278 279 279 278 277 277 278 279 279 279 279 280 280 281 282 283 285 286 288 289 290 291 292 292 294 294 293 291 290 289 289 290 292 294
288 287 286 284 283 282 281 280 279 279 279 279 279 279 279 279 278 278 277 277 277 277 277 277 277 277 276 275 275 275 275 275 275 275 275 275 275 274 274 275 276 276 275 275 275 275 275 275 276 276 277 278 278 279 279 279 278 277 278 279 280 281 281 281 282 283 283 285 287 289 290 291 292 293 294 294 293 291 290 289 288 289 291 293 295
290 289 287 286 285 283 282 281 281 280 280 280 280 280 280 280 280 279 279 279 279 279 279 279 279 279 278 278 277 277 277 277 277 277 277 276 276 276 275 276 277 278 277 277 277 277 277 277 277 278 278 279 279 279 279 279 279 277 276 277 279 280 280 281 282 283 283 286 288 289 290 292 293 294 293 292 291 289 288 288 288 291 293 295 297
295 293 291 289 288 286 285 284 283 282 282 281 281 281 280 280 280 280 280 279 279 278 278 278 277 277 277 277 277 277 277 277 277 277 277 277 277 277 277 277 278 278 278 278 278 278 279 279 279 280 280 280 281 281 281 280 279 278 276 275 275 277 277 279 281 282 284 286 288 289 291 292 293 292 291 290 289 287 286 288 291 293 296 297 298
303 300 296 293 291 288 286 285 284 282 281 280 280 279 279 278 278 278 278 277 277 277 276 276 276 275 275 276 276 276 276 276 277 277 277 278 278 278 278 278 279 279 280 280 280 279 280 280 280 281 281 282 282 282 282 282 281 280 278 277 276 276 277 279 281 283 284 286 288 289 291 292 291 290 289 287 286 286 287 291 293 295 298 298 298
314 310 305 300 295 292 289 287 285 283 281 279 279 278 277 276 276 276 276 275 275 275 275 275 275 276 276 276 276 277 277 277 278 278 278 278 278 278 278 278 278 279 280 280 280 280 280 280 281 281 282 282 283 283 284 284 283 282 281 280 280 278 279 280 281 282 284 286 288 289 290 290 289 287 286 285 286 289 291 293 296 298 299 299 300
321 317 312 307 301 297 293 290 287 286 283 281 279 278 276 275 275 274 274 274 274 273 273 274 274 274 275 276 276 277 278 278 279 280 280 279 279 278 278 277 276 277 277 278 279 280 281 281 281 281 281 282 284 285 286 286 285 284 283 282 281 280 280 280 280 282 285 286 286 287 288 288 286 284 284 286 289 291 294 296 298 299 300 301 303
323 320 316 311 306 301 297 294 291 289 287 285 283 281 278 276 275 275 275 274 274 274 274 273 273 274 274 275 276 277 278 279 280 280 281 281 280 280 278 277 276 276 276 277 278 279 280 281 280 281 282 283 285 286 288 289 289 287 284 283 282 281 280 279 279 281 284 284 284 286 286 284 283 284 286 289 291 295 297 299 300 301 302 304 305
325 323 319 315 310 306 301 298 295 292 290 289 287 284 281 279 277 277 277 277 277 277 277 276 275 275 275 275 276 277 278 278 279 280 280 281 280 280 279 277 277 276 277 277 277 277 279 280 280 282 283 285 286 289 291 292 293 290 284 281 283 283 280 278 280 281 282 282 283 283 282 281 283 286 288 292 295 298 299 300 301 303 305 306 307
327 326 323 319 314 310 306 302 299 296 294 293 290 288 284 281 279 278 279 280 280 280 279 278 277 277 277 277 277 277 277 277 278 278 279 279 279 279 279 278 278 277 277 277 276 276 277 278 280 282 284 285 288 290 291 291 292 291 285 280 283 285 281 279 280 280 280 281 280 279 279 281 285 288 292 296 298 299 300 302 304 305 307 308 310
330 328 325 321 317 313 309 306 303 300 298 296 294 291 288 285 282 280 280 280 281 280 280 279 278 278 277 277 276 276 276 276 277 277 277 278 279 279 279 279 278 277 276 275 275 274 275 276 279 281 283 285 287 289 291 290 291 290 285 280 283 286 284 280 279 278 278 278 277 277 280 284 288 293 296 298 299 300 303 305 306 308 310 312 313
332 330 326 322 318 314 311 308 305 303 300 298 296 293 290 287 284 282 281 281 281 281 281 281 280 279 278 277 277 276 276 276 277 277 277 278 278 279 279 278 277 276 275 274 274 273 273 275 277 280 281 284 287 289 291 292 291 288 285 283 286 289 285 279 276 276 275 275 275 278 284 289 294 296 297 298 300 303 306 308 309 311 313 315 315
333 331 328 324 320 316 312 309 307 304 302 300 297 294 292 289 287 285 284 284 284 284 283 283 283 282 281 280 278 277 276 276 276 276 276 277 277 277 277 277 276 275 274 273 272 272 273 274 276 278 280 283 286 290 293 294 292 288 286 287 289 288 282 276 273 272 271 273 278 284 290 295 296 297 298 301 304 306 308 310 312 314 316 316 316
333 333 331 327 322 318 314 311 309 307 305 303 300 298 295 293 291 289 288 287 287 286 285 285 284 284 283 282 281 279 277 276 275 275 275 276 276 275 275 275 274 273 273 273 272 272 273 274 276 278 280 283 287 292 295 296 293 289 288 288 287 282 277 272 269 269 272 278 286 292 295 297 297 299 302 304 306 308 311 314 316 317 317 316 316
334 334 333 330 326 322 318 315 312 310 308 307 305 302 300 297 295 293 292 291 290 289 288 287 286 285 284 282 281 280 279 277 275 274 274 275 275 274 273 272 272 272 272 272 271 272 274 276 277 279 281 284 289 292 294 295 294 291 288 285 280 275 271 268 268 272 280 288 293 295 297 298 300 302 304 306 309 312 315 318 318 318 317 316 316
334 335 335 333 330 326 324 322 319 316 314 312 310 308 305 303 301 300 298 297 295 294 292 290 288 285 283 282 280 279 279 277 275 273 272 271 272 271 271 271 271 272 272 272 272 274 275 277 279 281 283 286 289 291 293 294 293 289 283 278 273 268 266 268 274 282 289 293 295 297 299 301 303 305 307 309 313 317 319 319 319 318 317 317 316
335 336 336 334 332 329 328 328 326 322 319 318 316 315 313 310 308 306 304 302 301 299 297 295 292 288 285 282 279 278 277 276 275 272 269 268 268 269 270 270 272 273 273 273 274 276 278 280 282 284 286 288 289 290 291 289 286 280 273 269 266 265 269 276 284 289 293 295 298 300 302 304 305 307 311 315 318 319 320 320 319 319 318 317 316
336 337 337 336 334 332 331 332 330 326 324 323 322 320 318 316 314 312 311 310 309 308 306 303 299 294 288 283 279 277 276 275 274 270 265 264 265 267 269 271 273 274 274 275 276 279 282 284 286 287 289 289 288 287 284 280 274 269 265 263 265 270 278 285 290 293 296 299 301 302 304 305 308 312 316 319 320 320 320 321 320 320 319 318 318
337 338 339 339 337 335 335 336 333 329 328 327 326 325 324 322 320 318 317 316 316 317 317 313 307 300 293 286 279 274 273 272 269 264 260 260 262 265 269 272 274 275 275 276 279 283 286 288 289 291 290 287 283 279 275 270 267 264 264 266 272 279 286 290 294 297 299 301 302 304 306 309 314 317 319 320 320 321 322 322 321 320 320 320 321
338 339 340 341 339 338 339 339 335 331 330 330 331 333 332 329 325 323 321 321 323 326 327 324 318 311 303 292 280 271 267 265 260 256 257 260 264 267 270 272 273 275 277 280 284 287 288 291 293 294 290 284 279 278 274 269 266 266 268 275 282 288 292 295 297 299 301 302 304 307 311 315 318 319 319 320 322 323 323 323 323 322 322 323 324
339 340 342 342 341 341 343 343 338 332 332 334 337 340 338 333 328 325 325 326 329 331 333 332 330 325 318 306 288 270 260 257 255 255 259 263 267 270 272 273 275 278 281 284 286 288 290 292 293 294 292 288 285 280 273 268 269 273 279 286 290 293 295 297 299 300 302 304 307 312 316 318 319 319 320 322 324 325 325 325 325 324 324 325 326
339 341 343 344 343 343 346 347 342 335 334 337 340 342 341 337 332 330 330 329 330 332 335 337 338 336 332 321 302 273 258 257 259 261 265 270 274 275 276 277 280 282 284 286 287 289 289 290 290 292 293 290 282 275 273 275 281 285 289 292 294 295 297 298 300 302 305 309 313 316 318 318 319 320 322 324 326 327 328 328 327 326 326 327 328
339 341 345 346 345 344 348 350 347 339 334 337 340 343 344 341 338 336 333 330 329 332 337 339 340 341 339 331 313 290 278 275 275 277 280 283 282 281 281 281 282 283 285 287 287 286 286 288 290 291 289 284 280 280 283 287 290 291 292 293 295 297 299 301 303 306 310 313 316 317 318 319 320 322 324 326 328 330 331 330 329 328 328 329 329
340 342 345 348 347 346 349 352 351 344 337 335 338 342 345 343 341 340 338 332 329 333 338 342 343 343 340 333 322 309 301 297 293 291 289 286 281 280 281 282 283 286 287 286 283 282 285 290 293 292 288 285 285 287 290 292 293 293 294 297 299 301 304 305 307 310 313 315 316 317 318 320 322 324 326 329 331 333 333 332 331 330 330 330 331
341 343 346 349 349 348 348 352 354 350 343 336 335 339 343 344 343 342 340 336 335 338 341 344 347 346 341 333 323 314 307 302 296 290 284 281 281 282 283 285 287 288 285 279 278 284 292 296 295 292 290 290 292 295 296 295 296 298 301 303 305 306 307 308 309 312 314 316 317 318 320 322 324 326 329 331 334 335 335 334 332 332 331 332 332
341 343 345 348 350 349 348 350 353 353 349 342 336 335 338 341 343 342 340 339 339 341 342 343 344 344 341 334 326 319 312 305 297 290 286 286 286 285 286 289 289 285 277 275 284 295 300 299 297 295 296 297 298 299 299 300 302 305 307 307 307 307 307 309 311 313 316 317 318 320 323 325 327 329 331 334 336 337 337 335 334 333 333 333 333
342 343 345 347 350 350 348 348 351 353 353 349 343 337 335 336 338 339 339 338 339 338 337 335 333 332 331 329 325 320 315 309 302 297 294 292 289 289 290 289 282 273 272 287 303 305 303 302 301 301 301 301 301 303 304 306 307 307 307 307 306 307 308 310 313 315 317 319 321 323 325 327 329 331 333 335 338 339 338 336 335 334 334 334 334
342 343 344 345 348 350 350 349 349 351 353 352 350 345 339 336 334 334 334 334 335 334 333 330 327 325 325 325 322 318 313 308 304 302 300 297 295 293 289 280 271 273 293 311 311 307 305 305 305 305 305 306 306 306 306 306 305 305 305 306 307 308 310 313 315 317 320 322 323 325 327 328 330 332 334 337 340 340 339 337 336 335 335 335 335
343 342 343 343 346 349 350 351 349 348 350 352 353 351 347 341 336 332 330 329 329 329 329 329 327 324 324 325 324 318 312 307 305 305 306 306 303 294 282 274 278 299 316 316 312 310 309 308 308 308 307 306 304 303 304 304 305 306 307 307 309 311 313 315 318 320 322 324 325 326 328 330 331 334 336 339 341 341 340 338 337 336 336 336 336
344 342 342 342 343 346 348 350 350 348 347 349 351 353 352 348 343 336 330 327 326 325 326 327 326 324 323 324 324 320 314 309 307 308 310 312 307 295 285 288 304 318 319 315 312 310 307 305 305 303 302 301 302 303 306 308 308 308 309 310 311 314 316 318 320 322 324 325 326 328 329 331 333 336 338 340 342 342 341 339 338 338 338 338 337
346 343 342 341 342 343 345 348 349 349 347 346 346 349 350 350 348 342 335 329 326 324 324 324 323 323 326 327 327 326 323 319 316 317 318 313 301 295 298 308 317 319 315 310 307 303 300 300 301 301 301 304 307 309 311 311 310 311 312 313 314 316 318 320 322 323 325 326 327 329 331 333 335 337 339 341 342 343 342 341 340 339 339 339 339
348 346 343 341 340 341 342 344 346 347 347 346 344 343 344 346 348 347 342 335 328 325 324 323 321 323 328 331 330 330 332 335 335 330 319 303 297 300 307 312 313 311 307 303 300 299 300 301 304 306 309 312 314 314 314 313 313 314 314 315 316 318 319 321 323 324 325 327 329 331 333 335 337 339 340 342 344 344 344 343 341 340 340 341 340
350 348 346 343 341 340 340 340 342 343 345 346 345 342 340 341 343 344 344 340 333 326 322 320 319 322 327 329 329 329 333 336 333 320 305 299 301 305 309 310 309 306 302 299 299 301 304 308 312 315 316 317 317 317 316 315 315 315 315 316 317 318 320 321 323 324 326 329 330 333 335 336 338 340 342 343 345 345 345 344 342 341 341 342 341
349 349 348 346 344 341 339 338 338 339 341 343 344 343 341 339 338 339 340 340 337 330 321 314 313 318 323 324 325 327 328 324 315 303 298 301 305 307 309 310 307 301 298 300 305 310 314 318 319 319 318 318 318 318 317 316 316 316 316 317 318 319 320 322 323 325 328 330 332 334 336 338 340 342 343 344 346 347 347 345 344 342 342 343 343
347 346 346 345 344 343 340 338 336 336 336 338 340 341 341 339 337 336 336 336 336 333 326 315 307 309 315 317 318 322 321 312 301 297 300 303 306 308 308 305 299 297 302 310 317 320 322 322 320 319 318 318 319 318 317 316 316 316 317 317 318 319 321 323 324 327 329 332 334 336 338 340 341 343 345 346 347 348 348 347 345 343 343 344 344
347 345 344 343 342 342 341 339 336 334 333 333 335 337 338 338 336 335 335 333 332 333 333 326 314 307 307 309 311 314 311 301 294 296 301 304 306 306 302 295 295 305 315 322 325 324 323 321 319 317 318 319 319 319 318 317 317 317 317 317 318 320 321 323 326 328 330 333 335 337 339 341 343 345 346 347 348 348 348 348 346 344 343 345 346
346 345 344 342 340 338 338 338 337 335 332 330 330 332 334 335 335 335 335 334 331 331 334 334 326 315 307 307 309 309 304 296 293 295 301 305 305 301 292 289 300 316 325 327 327 325 322 320 318 317 318 319 320 320 319 318 317 317 317 317 319 321 322 324 326 329 332 334 336 338 341 343 345 347 348 348 349 349 349 348 347 345 344 345 347